CW3353 Weather Reports


Display with metric or nautical units.
time (UTC)temp
F
wind
direction
speed
MPH
gust
MPH
rain 1hr
in
rain 24hr
in
rain mn
in
humidity
%
barometer
mb
20190424035050 55 238 0.0 0.0 0.00 0.01 0.01 32 1014.9
20190424034050 55 238 0.0 0.0 0.00 0.01 0.01 33 1014.9
20190424033049 56 238 0.0 0.0 0.00 0.01 0.01 35 1014.9
20190424032049 56 239 0.0 0.0 0.00 0.01 0.01 36 1015.0
20190424031049 56 239 0.0 0.0 0.00 0.01 0.01 38 1015.2
20190424030049 56 239 0.0 0.0 0.00 0.01 0.01 40 1015.2
20190424025049 57 239 0.0 0.0 0.00 0.01 0.01 42 1015.3
20190424024048 58 239 0.0 0.0 0.00 0.01 0.01 43 1015.3
20190424023048 58 239 0.0 0.0 0.00 0.01 0.01 45 1015.3
20190424022048 59 239 0.0 0.0 0.00 0.01 0.01 47 1015.4
20190424021048 59 239 0.0 0.0 0.00 0.01 0.01 47 1015.5
20190424020047 60 239 0.0 0.0 0.00 0.01 0.01 48 1015.5
20190424015046 60 239 0.0 0.0 0.00 0.01 0.01 48 1015.3
20190424014046 61 239 0.0 0.0 0.00 0.01 0.01 48 1015.4
20190424013046 61 239 0.0 0.0 0.00 0.01 0.01 48 1015.4
20190424012046 61 240 0.0 0.0 0.00 0.01 0.01 48 1015.4
20190424011045 62 240 0.0 0.0 0.00 0.01 0.01 47 1015.5
20190424010045 62 225 0.0 0.0 0.00 0.01 0.01 47 1015.5
20190424005045 63 234 0.0 0.0 0.00 0.01 0.01 46 1015.4
20190424004045 63 234 0.0 1.0 0.00 0.01 0.01 45 1015.4
20190424003044 63 243 0.0 2.0 0.00 0.01 0.01 45 1015.4
20190424002044 64 248 0.0 3.0 0.00 0.01 0.01 45 1015.5
20190424001044 64 276 0.0 3.0 0.00 0.01 0.01 44 1015.7
20190424000043 64 217 0.0 1.0 0.00 0.01 0.01 44 1015.7
20190423235043 64 218 0.0 1.0 0.00 0.01 0.01 44 1015.7
20190423234043 64 226 0.0 1.0 0.00 0.01 0.01 44 1015.9
20190423233043 64 242 0.0 1.0 0.00 0.01 0.01 43 1015.9
20190423232042 65 286 0.0 5.0 0.00 0.01 0.01 43 1016.0
20190423231042 65 289 4.0 5.0 0.00 0.01 0.01 44 1016.1
20190423230041 65 246 0.0 4.0 0.00 0.01 0.01 43 1016.1
20190423225041 65 259 0.0 4.0 0.00 0.01 0.01 43 1016.1
20190423224041 65 267 0.0 0.0 0.00 0.01 0.01 43 1016.2
20190423223041 65 298 0.0 1.0 0.00 0.01 0.01 43 1016.2
20190423222041 65 292 0.0 5.0 0.00 0.01 0.01 43 1016.2
20190423221040 65 272 0.0 2.0 0.00 0.01 0.01 41 1016.4
20190423220110 65 308 0.0 3.0 0.00 0.01 0.01 41 1016.4
20190423215039 64 275 0.0 1.0 0.00 0.01 0.01 43 1016.5
20190423214039 65 271 0.0 3.0 0.00 0.01 0.01 43 1016.7
20190423213039 64 257 0.0 4.0 0.00 0.01 0.01 43 1016.7
20190423212108 64 273 0.0 1.0 0.00 0.01 0.01 43 1016.9
20190423211108 64 315 0.0 6.0 0.00 0.02 0.01 42 1017.0
20190423210108 64 312 1.0 4.0 0.00 0.02 0.01 44 1017.0
20190423205038 64 306 0.0 3.0 0.00 0.03 0.01 45 1017.2
20190423204107 63 229 0.0 4.0 0.00 0.04 0.01 46 1017.5
20190423203107 62 214 0.0 3.0 0.00 0.05 0.01 46 1017.5
20190423202107 63 314 1.0 3.0 0.00 0.07 0.01 46 1017.6
20190423201036 62 225 0.0 1.0 0.00 0.10 0.01 46 1018.0
20190423200106 62 275 0.0 1.0 0.00 0.10 0.01 46 1018.0
20190423195036 62 290 1.0 4.0 0.00 0.10 0.01 46 1018.2
20190423194105 62 307 0.0 4.0 0.00 0.10 0.01 47 1018.6
20190423193105 61 234 0.0 3.0 0.00 0.10 0.01 47 1018.5
20190423192105 61 289 0.0 0.0 0.00 0.10 0.01 47 1018.6
20190423191105 60 306 0.0 0.0 0.00 0.10 0.01 46 1019.0
20190423190105 60 241 0.0 5.0 0.00 0.10 0.01 47 1019.0
20190423185104 60 232 0.0 4.0 0.00 0.10 0.01 47 1019.1
20190423184105 59 294 0.0 5.0 0.00 0.10 0.01 44 1019.3
20190423183104 58 192 0.0 1.0 0.00 0.10 0.01 45 1019.3
20190423182103 58 302 0.0 4.0 0.00 0.10 0.01 45 1019.6
20190423181103 58 315 0.0 5.0 0.00 0.10 0.01 42 1019.7
20190423180102 59 228 0.0 1.0 0.00 0.10 0.01 41 1019.7
20190423175102 58 264 0.0 4.0 0.00 0.10 0.01 36 1020.0
20190423174102 57 292 0.0 4.0 0.00 0.10 0.01 36 1020.1
20190423173102 57 225 0.0 0.0 0.00 0.10 0.01 37 1020.1
20190423172104 56 313 0.0 1.0 0.00 0.10 0.01 32 1020.4
20190423171101 56 238 0.0 2.0 0.00 0.10 0.01 36 1020.6
20190423170101 56 297 0.0 1.0 0.00 0.11 0.01 36 1020.6
20190423165102 56 219 0.0 1.0 0.00 0.11 0.01 28 1020.7
20190423164100 54 215 0.0 1.0 0.00 0.12 0.01 27 1021.0
20190423163100 54 197 0.0 0.0 0.00 0.13 0.01 21 1021.0
20190423162100 54 219 0.0 0.0 0.00 0.13 0.01 17 1021.1
20190423161059 53 218 0.0 0.0 0.00 0.13 0.01 2 1021.2
20190423160059 52 219 0.0 1.0 0.00 0.13 0.01 100 1021.1
20190423155059 51 215 0.0 0.0 0.00 0.13 0.01 100 1021.3
20190423154059 51 229 0.0 1.0 0.00 0.13 0.01 100 1021.4
20190423153058 50 244 0.0 0.0 0.00 0.13 0.01 100 1021.3
20190423152058 50 297 0.0 0.0 0.00 0.13 0.01 100 1021.2
20190423151058 49 297 0.0 0.0 0.00 0.13 0.01 100 1021.2
20190423150057 49 303 0.0 0.0 0.00 0.13 0.01 100 1021.2
20190423145057 48 303 0.0 1.0 0.00 0.13 0.01 100 1021.3
20190423144057 47 316 0.0 0.0 0.00 0.13 0.01 100 1021.3
20190423143057 46 317 0.0 0.0 0.00 0.13 0.01 100 1021.3
20190423142057 45 319 0.0 0.0 0.00 0.13 0.01 100 1021.3
20190423141056 44 323 0.0 0.0 0.00 0.13 0.01 100 1021.1
20190423140056 45 329 0.0 0.0 0.00 0.13 0.01 100 1021.1
20190423135055 44 330 0.0 0.0 0.00 0.13 0.01 100 1020.9
20190423134055 42 330 0.0 0.0 0.00 0.14 0.01 100 1020.8
20190423133054 42 329 0.0 0.0 0.00 0.14 0.01 100 1020.8
20190423132054 41 329 0.0 0.0 0.00 0.17 0.01 100 1020.8
20190423131054 41 329 0.0 0.0 0.00 0.18 0.01 100 1020.8
20190423130054 40 328 0.0 0.0 0.01 0.21 0.01 100 1020.8
20190423125053 39 328 0.0 0.0 0.01 0.23 0.01 100 1020.7
20190423124053 39 328 0.0 0.0 0.01 0.25 0.01 100 1020.8
20190423123053 38 328 0.0 0.0 0.01 0.26 0.01 100 1020.7
20190423122053 37 328 0.0 0.0 0.01 0.26 0.01 100 1020.5
20190423121052 37 328 0.0 0.0 0.01 0.28 0.01 100 1020.5
20190423120052 36 328 0.0 0.0 0.00 0.28 0.00 100 1020.5
20190423115052 36 329 0.0 0.0 0.00 0.34 0.00 100 1020.4
20190423114051 36 330 0.0 0.0 0.00 0.38 0.00 100 1020.3
20190423113051 36 329 0.0 0.0 0.00 0.38 0.00 100 1020.3
20190423112051 36 329 0.0 0.0 0.00 0.38 0.00 100 1020.3
20190423111050 36 329 0.0 0.0 0.00 0.38 0.00 100 1020.1
20190423110050 36 330 0.0 0.0 0.00 0.38 0.00 100 1020.1
20190423105050 36 329 0.0 0.0 0.00 0.38 0.00 100 1020.2
20190423104050 36 329 0.0 0.0 0.00 0.39 0.00 100 1020.1
20190423103055 36 329 0.0 0.0 0.00 0.39 0.00 100 1020.1
20190423102049 36 329 0.0 0.0 0.00 0.39 0.00 100 1020.1
20190423101049 36 329 0.0 0.0 0.00 0.39 0.00 100 1020.1
20190423100048 36 329 0.0 0.0 0.00 0.39 0.00 100 1020.1
20190423095048 36 329 0.0 0.0 0.00 0.39 0.00 100 1019.9
20190423094048 36 329 0.0 0.0 0.00 0.39 0.00 100 1019.9
20190423093047 37 329 0.0 0.0 0.00 0.39 0.00 100 1019.9
20190423092047 37 329 0.0 0.0 0.00 0.39 0.00 100 1019.8
20190423091047 37 330 0.0 0.0 0.00 0.39 0.00 100 1019.8
20190423090047 37 330 0.0 0.0 0.00 0.39 0.00 100 1019.8
20190423085047 37 330 0.0 0.0 0.00 0.40 0.00 100 1019.7
20190423084046 37 331 0.0 0.0 0.00 0.41 0.00 100 1019.6
20190423083046 37 331 0.0 0.0 0.00 0.43 0.00 100 1019.6
20190423082046 37 331 0.0 0.0 0.00 0.45 0.00 100 1019.6
20190423081045 38 331 0.0 0.0 0.00 0.46 0.00 100 1019.6
20190423080047 38 331 0.0 0.0 0.00 0.46 0.00 100 1019.6
20190423075045 38 331 0.0 0.0 0.00 0.46 0.00 100 1019.8
20190423074044 38 331 0.0 0.0 0.00 0.46 0.00 100 1019.8
20190423073044 38 331 0.0 0.0 0.00 0.47 0.00 100 1019.8
20190423072044 38 330 0.0 0.0 0.00 0.47 0.00 100 1020.0
20190423071043 39 331 0.0 0.0 0.00 0.48 0.00 100 1020.0
20190423070044 39 331 0.0 0.0 0.00 0.48 0.00 100 1020.0
20190423065043 39 333 0.0 0.0 0.00 0.48 0.00 100 1019.8
20190423064043 39 338 0.0 0.0 0.00 0.48 0.00 100 1019.8
20190423063042 39 345 0.0 0.0 0.00 0.48 0.00 100 1019.8
20190423062042 40 347 0.0 0.0 0.00 0.48 0.00 100 1019.6
20190423061041 40 347 0.0 0.0 0.00 0.48 0.00 100 1019.4
20190423060041 40 348 0.0 0.0 0.00 0.48 0.00 100 1019.4
20190423055041 40 351 0.0 0.0 0.00 0.48 0.00 100 1019.6
20190423054040 41 355 0.0 0.0 0.00 0.48 0.00 100 1019.6
20190423053040 41 360 0.0 0.0 0.00 0.48 0.00 100 1019.6
20190423052040 41 360 0.0 1.0 0.00 0.48 0.00 100 1019.6
20190423051040 41 360 0.0 0.0 0.00 0.48 0.00 100 1019.6
20190423050110 41 9 0.0 1.0 0.00 0.48 0.00 100 1019.6
20190423045039 42 5 0.0 1.0 0.00 0.48 0.48 100 1019.4
20190423044109 42 19 0.0 0.0 0.00 0.48 0.48 100 1019.4
20190423043109 42 40 0.0 0.0 0.00 0.48 0.48 100 1019.4
20190423042108 42 51 0.0 1.0 0.00 0.48 0.48 100 1019.3
20190423041108 42 64 0.0 0.0 0.00 0.48 0.48 100 1019.2
20190423040109 43 64 0.0 0.0 0.00 0.48 0.48 100 1019.2